User: anonymous   Login
Location: Caltech
(34.1382°N, 118.1253°W)
Time: 17:38:06
(UTC-07:00)
Language:

Oscar 16 - Orbit

View from above orbital plane
View from above orbital plane
View from above satellite
View from above satellite

Ground track
Ground track

The orbit data is extracted from the following two-line orbital elements,

1 20439U 90005D   15209.43103258  .00000022  00000-0  24264-4 0  9991
2 20439 098.5414 145.0233 0011742 043.4918 082.0311 14.32558767332644
Epoch (UTC): 28 July 2015 10:20:41
Eccentricity: 0.0011742
inclination: 98.5414°
perigee height: 775 km
apogee height: 791 km
right ascension of ascending node: 145.0233°
argument of perigee: 43.4918°
revolutions per day: 14.32558767
mean anomaly at epoch: 82.0311°
orbit number at epoch: 33264

The dashed part of the orbit path shows where the satellite is in the earth's shadow,  

DLR